Regional Weather Roundup
Issued by NWS Cleveland, OH

Home | Current Version | Previous Version | Graphics & Text | Print | Product List | Glossary On
Versions: 1 2 3 4 5 6 7 8 9 10 11 12 13 14 15 16 17 18 19 20 21 22 23 24 25 26 27 28 29 30 31 32 33 34 35 36 37 38 39 40 41 42 43 44 45 46 47 48 49 50
417
ASUS41 KCLE 270610
RWRCLE
OHIO REGIONAL WEATHER ROUNDUP
NATIONAL WEATHER SERVICE CLEVELAND, OH
200 AM EDT TUE SEP 27 2016

NOTE: "FAIR" INDICATES FEW OR NO CLOUDS BELOW 12,000 FEET WITH NO
SIGNIFICANT WEATHER AND/OR OBSTRUCTIONS TO VISIBILITY.

OHZ001>008-015>018-024>027-034-035-043-044-270700-
   NORTHWEST OHIO

CITY           SKY/WX    TMP DP  RH WIND       PRES   REMARKS
DEFIANCE       CLEAR     52  40  63 SW7       29.93F
FINDLAY        CLEAR     54  41  61 SW7       29.95F
TOLEDO EXPRESS CLEAR     51  43  74 SW7       29.91F
TOLEDO EXEC    CLEAR     52  44  74 SW8       29.93F
LIMA           CLEAR     54  43  66 W9        29.97F
$$

OHZ009>014-019>023-028>033-038-089-270700-
   NORTHEAST OHIO

CITY           SKY/WX    TMP DP  RH WIND       PRES   REMARKS
CLE-HOPKINS    CLEAR     55  45  68 SW8       29.96S
CLE-LAKEFRONT  CLEAR     60  44  55 SW14G22   29.92F
CUY CO. ARPT   NOT AVBL
LORAIN-ELYRIA  CLEAR     48  43  82 SW7       29.95S
ASHTABULA      CLEAR     54  51  90 SW9       29.94F
AKRON-CANTON   CLEAR     52  47  83 SW8       29.97F
WOOSTER        CLEAR     51  47  86 SW8       29.98S
MANSFIELD      CLEAR     53  43  68 SW7       29.97F
YOUNGSTOWN     PTCLDY    53  50  89 S7        29.96F
$$

OHZ042-051>053-060>062-070>072-077>081-270700-
  SOUTHWEST OHIO

CITY           SKY/WX    TMP DP  RH WIND       PRES   REMARKS
CINC-COVINGTON CLEAR     54  51  90 SW6       30.04F
CINC-LUNKEN    CLEAR     51  51 100 CALM      30.05F FOG
HAMILTON       CLEAR     47  45  93 CALM      30.04F
DAYTON         CLEAR     53  46  77 SW12      30.01F
WRIGHT-PAT AFB CLEAR     50  47  90 SW6       30.00F
DAYTON GENERAL CLEAR     52  48  86 S3        30.01F
WILMINGTON     CLEAR     50  49  96 S5        30.03S
$$

OHZ036-037-039>041-045>050-054>059-063>069-073>076-082>088-270700-
  CENTRAL AND SOUTHEAST OHIO

CITY           SKY/WX    TMP DP  RH WIND       PRES   REMARKS
COLUMBUS       CLEAR     53  51  93 S5        30.01S
OSU AIRPORT    CLEAR     53  49  86 S7        30.00F
BOLTON FIELD   CLEAR     49  48  94 SW6       30.01F
RICKENBACK AFB CLEAR     51  49  92 S6        30.01S
NEWARK         CLEAR     48  46  93 S3        30.01S
MARION         CLEAR     49  43  80 S7        29.98F
LANCASTER      CLEAR     54  49  83 S5        30.02F
ZANESVILLE     CLEAR     52  50  93 S6        30.02S
NEW PHILLY     CLEAR     52  52 100 E3        30.00F
$$




USA.gov is the U.S. government's official web portal to all federal, state and local government web resources and services.